Location: Unspecified
(0.0000°N, 0.0000°E)
Time: 08:43:18
(UTC+01:00)

Cosmos 1833 Rocket - Visible Passes

Search period start: 09 December 2016 00:00
Search period end: 19 December 2016 00:00
Orbit: 831 x 841 km, 71.0° (Epoch: 08 December)

Date Brightness Start Highest point End Pass type
(mag) Time Alt. Az. Time Alt. Az. Time Alt. Az.
09 Dec 2.5 20:08:59 10° NNW 20:14:34 81° ENE 20:20:11 10° SSE visible
10 Dec 2.6 19:52:20 10° N 19:57:55 72° ENE 20:03:30 10° SSE visible
11 Dec 2.6 19:35:43 10° N 19:41:15 64° ENE 19:46:47 10° SSE visible
12 Dec 2.8 19:19:07 10° N 19:24:35 57° ENE 19:30:04 10° SSE visible
13 Dec 6.0 06:21:40 10° SE 06:24:26 14° ESE 06:27:11 10° ENE visible
13 Dec 6.0 20:51:09 10° WSW 20:51:35 10° WSW 20:52:01 10° WSW visible
14 Dec 6.1 06:05:39 10° SE 06:07:45 12° ESE 06:09:51 10° E visible
14 Dec 5.9 20:33:01 10° W 20:34:54 12° WSW 20:36:49 10° SW visible
15 Dec 6.3 05:50:04 10° ESE 05:51:05 10° ESE 05:52:06 10° E visible
15 Dec 5.9 20:15:38 10° WNW 20:18:14 13° WSW 20:20:51 10° SW visible
16 Dec 5.8 19:58:26 10° WNW 20:01:33 15° WSW 20:04:41 10° SW visible
17 Dec 5.7 19:41:21 10° WNW 19:44:53 17° WSW 19:48:26 10° SW visible
18 Dec 5.7 19:24:20 10° WNW 19:28:13 19° WSW 19:32:07 10° SSW visible
